#timestamp,LO_Frequency,Hit,StdDev 
1575565215.6,286046997.7,N
1575565235.5,286046997.0,N
1575565255.3,286046998.0,N
1575565275.1,286046995.6,N
1575565295.9,286046996.0,N
1575565315.7,286046993.7,Y
1575565335.6,286046995.4,P
1575565355.4,286046998.6,N
1575565375.2,286046997.0,N
1575565395.1,286046997.7,N
1575565396.0,286046997.7,N
1575565415.8,286046997.3,N
1575565435.7,286046997.0,N
1575565455.5,286046999.2,N
1575565475.3,286046998.6,N
1575565495.2,286046996.9,N
1575565515.0,286046999.6,N
1575565515.9,286046999.6,N
1575565535.7,286046999.6,N
1575565555.6,286046999.2,N
1575565575.4,286046997.4,N
1575565595.3,286046995.7,Y
1575565615.1,286046996.8,P
1575565635.8,286047001.2,N
1575565655.7,286047000.4,N
1575565675.5,286047000.5,N
1575565695.3,286046998.9,N
1575565715.2,286047000.5,N
1575565735.0,286047000.2,N
1575565735.9,286047000.2,N
1575565755.8,286047001.2,N
1575565775.6,286046998.5,N
1575565795.4,286046999.9,N
1575565815.3,286047004.4,Y
1575565835.1,286047002.5,P
1575565855.9,286047000.9,N
1575565875.7,286046998.6,N
1575565895.5,286047000.2,N
1575565915.4,286047000.3,N
1575565935.2,286047001.2,N
1575565955.0,286047000.5,N
1575565955.9,286047000.5,N
1575565975.8,286047000.7,N
1575565995.6,286047000.7,N
1575566015.5,286046996.9,Y
1575566035.3,286046997.9,P
1575566055.1,286046996.9,N
1575566075.9,286046998.3,N
1575566095.7,286046997.3,N
1575566115.5,286046997.5,N
1575566135.4,286046997.5,N
1575566155.2,286046997.7,N
1575566175.1,286046999.3,N
1575566176.0,286046999.3,N
1575566195.8,286046997.9,N
1575566215.6,286046996.5,Y
1575566235.5,286046998.4,P
1575566255.3,286046998.9,P
1575566275.1,286046998.8,P
1575566295.9,286047000.3,N
1575566315.7,286047000.6,N
1575566335.6,286047002.8,Y
1575566355.4,286047002.0,P
1575566375.2,286047002.7,N
1575566395.1,286047002.4,N
1575566396.0,286047002.4,N
1575566415.8,286047002.5,N
1575566435.6,286047001.6,N
1575566455.5,286047001.6,N
1575566475.3,286047002.3,N
1575566495.2,286047002.0,N
1575566515.9,286047001.6,N
1575566535.7,286047004.0,Y
1575566555.6,286046999.8,P
1575566575.4,286046999.8,N
1575566595.3,286047002.1,N
1575566615.1,286047001.1,N
1575566616.0,286047001.1,N
1575566635.8,286047001.2,N
1575566655.7,286046997.0,Y
1575566675.5,286046997.5,P
1575566695.3,286046997.9,N
1575566715.2,286046995.6,N
1575566735.0,286046995.2,N
1575566735.9,286046995.2,N
1575566755.8,286046995.2,N
1575566775.6,286046997.3,N
1575566795.4,286046997.1,N
1575566815.3,286046998.8,N
1575566835.1,286046997.4,N
1575566855.8,286046997.9,N
1575566875.7,286046997.3,N
1575566895.5,286046997.7,N
1575566915.4,286046996.9,N
1575566935.2,286046996.7,N
1575566955.0,286046999.2,N
1575566955.9,286046999.2,N
1575566975.8,286046997.0,N
1575566995.6,286047002.4,N
1575567015.4,286047002.4,N
1575567035.3,286047001.0,N
1575567055.1,286046998.6,N
1575567075.9,286047000.3,N
1575567095.7,286046998.2,N
1575567115.5,286047001.0,N
1575567135.4,286046998.8,N
1575567155.2,286046994.9,N
1575567175.0,286046995.2,N
1575567175.9,286046995.2,N
1575567195.8,286046996.5,N
1575567215.6,286046997.7,N
1575567235.5,286046998.7,N
1575567255.3,286046997.6,N
1575567275.1,286047000.8,N
1575567295.9,286047000.4,N
1575567315.7,286046998.2,N
1575567335.5,286046999.1,N
1575567355.4,286046997.0,N
1575567375.2,286046996.3,N
1575567395.1,286046995.6,N
1575567396.0,286046995.6,N
1575567415.8,286046993.7,Y
1575567435.6,286046997.3,P
1575567455.5,286046998.9,N
1575567505.3,286047001.0,E
1575567515.3,286046998.5,N
1575567535.1,286046997.3,P
1575567555.8,286046997.0,P
1575567575.7,286047000.5,N
1575567595.5,286046998.5,N
1575567615.3,286046997.0,N
1575567635.2,286046997.0,N
1575567655.0,286046999.5,N
1575567655.9,286046999.5,N
1575567675.8,286046996.7,N
1575567695.6,286046997.0,N
1575567715.4,286046998.3,N
1575567735.3,286046998.1,N
1575567755.1,286046998.4,N
1575567775.9,286046999.4,N
1575567795.7,286046999.5,N
1575567815.5,286046999.1,N
1575567835.4,286046998.1,N
1575567855.2,286047002.7,N
1575567875.0,286046999.3,N
1575567875.9,286046999.3,N
1575567895.8,286047000.9,N
1575567915.6,286047001.8,N
1575567935.4,286047000.2,N
1575567955.3,286047000.8,N
1575567975.1,286047000.8,N
1575567995.9,286046998.7,N
1575568015.7,286046996.8,N
1575568035.5,286046995.0,Y
1575568055.4,286046997.4,P
1575568075.2,286046997.5,P
1575568095.0,286046994.1,P
1575568096.0,286046994.1,Y
1575568115.8,286046999.5,P
1575568135.6,286047000.9,N
1575568155.5,286047001.0,N
1575568175.3,286047002.4,N
1575568195.1,286047005.8,Y
1575568215.9,286047003.0,P
1575568235.7,286047003.2,N
1575568255.6,286047001.3,N
1575568275.4,286046999.8,N
1575568295.2,286047000.8,N
1575568315.1,286047000.8,N
1575568316.0,286047000.8,N
1575568335.8,286046998.6,N
1575568355.6,286047000.5,N
1575568375.5,286047000.0,N
1575568395.3,286047000.2,N
1575568415.2,286047002.0,N
1575568435.9,286047003.5,N
1575568455.7,286047003.1,N
1575568475.6,286047002.7,N
1575568495.4,286047001.5,N
1575568515.2,286047003.5,N
1575568535.1,286046999.8,N
1575568536.0,286046999.8,N
1575568555.8,286046998.3,N
1575568575.7,286046998.9,N
1575568595.5,286047000.6,N
1575568615.3,286047001.7,N
1575568635.2,286047001.7,N
1575568655.0,286047004.0,N
1575568655.9,286047004.0,N
1575568675.7,286047003.8,N
1575568695.6,286047005.9,Y
1575568715.4,286047003.4,P
1575568735.3,286047003.8,P
1575568755.1,286047004.1,P
1575568775.8,286047006.0,Y
1575568795.7,286046999.9,P
